Location: Unspecified
(0.0000°N, 0.0000°E)
Time: 16:15:37
(UTC+00:00)

Vanguard 2 - Pass Details

Date: 09 December 2017
Orbit: 553 x 2939 km, 32.9° (Epoch: 22 April)

Event Time Altitude Azimuth Distance (km) Brightness Sun altitude
Rises 02:22:28 0° 285° (WNW) 4,204 - -46.9°
Reaches altitude 10° 02:25:02 10° 278° (W) 3,506 - -46.4°
Maximum altitude 02:34:00 46° 208° (SSW) 2,494 - -44.6°
Exits shadow 02:34:40 46° 200° (SSW) 2,549 10.0 -44.4°
Drops below altitude 10° 02:48:09 10° 140° (SE) 5,389 12.4 -41.6°
Sets 02:53:15 0° 134° (SE) 6,622 13.1 -40.5°
